TimeCST,TemperatureF,Dew PointF,Humidity,Sea Level PressureIn,VisibilityMPH,Wind Direction,Wind SpeedMPH,Gust SpeedMPH,PrecipitationIn,Events,Conditions,WindDirDegrees,DateUTC
12:55 AM,26.6,21.2,80,30.29,10.0,North,9.2,-,N/A,,Scattered Clouds,360,2013-01-15 06:55:00
2:15 AM,24.8,21.2,86,30.27,10.0,North,8.1,-,N/A,,Clear,10,2013-01-15 08:15:00
2:35 AM,24.8,21.2,86,30.26,10.0,NNE,8.1,-,N/A,,Clear,20,2013-01-15 08:35:00
3:15 AM,24.8,21.2,86,30.24,10.0,NNE,6.9,-,N/A,,Clear,20,2013-01-15 09:15:00
3:35 AM,24.8,21.2,86,30.25,10.0,NNE,6.9,-,N/A,,Clear,20,2013-01-15 09:35:00
3:55 AM,24.8,21.2,86,30.25,10.0,NNE,5.8,-,N/A,,Clear,20,2013-01-15 09:55:00
4:15 AM,24.8,21.2,86,30.23,10.0,NNE,5.8,-,N/A,,Clear,20,2013-01-15 10:15:00
4:35 AM,24.8,21.2,86,30.24,10.0,NNE,5.8,-,N/A,,Scattered Clouds,20,2013-01-15 10:35:00
4:55 AM,24.8,21.2,86,30.23,10.0,NNE,5.8,-,N/A,,Overcast,20,2013-01-15 10:55:00
5:55 AM,24.8,23.0,93,30.21,10.0,NNE,6.9,-,N/A,,Overcast,30,2013-01-15 11:55:00
6:55 AM,26.6,24.8,93,30.24,10.0,NNE,4.6,-,N/A,,Overcast,30,2013-01-15 12:55:00
7:55 AM,26.6,24.8,93,30.24,10.0,North,9.2,-,N/A,,Mostly Cloudy,360,2013-01-15 13:55:00
8:55 AM,26.6,23.0,86,30.23,10.0,North,11.5,-,N/A,,Overcast,10,2013-01-15 14:55:00
9:55 AM,26.6,23.0,86,30.23,10.0,NE,8.1,-,N/A,,Mostly Cloudy,40,2013-01-15 15:55:00
10:55 AM,28.4,24.8,86,30.14,10.0,NNE,9.2,-,N/A,,Overcast,20,2013-01-15 16:55:00
11:55 AM,30.2,26.6,86,30.19,7.0,NNW,15.0,-,N/A,,Overcast,330,2013-01-15 17:55:00
12:55 PM,28.4,26.6,93,30.14,4.0,North,13.8,-,N/A,Rain,Light Freezing Rain,350,2013-01-15 18:55:00
1:55 PM,28.4,26.6,93,30.12,5.0,North,10.4,-,N/A,Rain,Light Freezing Rain,360,2013-01-15 19:55:00
2:55 PM,30.2,28.4,93,30.13,2.0,North,13.8,-,N/A,Rain,Light Freezing Rain,360,2013-01-15 20:55:00
3:55 PM,28.4,26.6,93,30.12,5.0,NNE,9.2,-,N/A,Rain,Light Freezing Rain,20,2013-01-15 21:55:00
4:55 PM,30.2,28.4,93,30.11,5.0,NNE,5.8,-,N/A,Rain,Light Freezing Rain,20,2013-01-15 22:55:00
5:55 PM,28.4,28.4,100,30.10,10.0,NNE,3.5,-,N/A,,Overcast,20,2013-01-15 23:55:00
6:55 PM,30.2,30.2,100,30.12,5.0,Calm,Calm,-,N/A,,Overcast,0,2013-01-16 00:55:00
7:55 PM,30.2,30.2,100,30.11,2.0,North,6.9,-,N/A,,Light Freezing Drizzle,350,2013-01-16 01:55:00
8:55 PM,30.2,30.2,100,30.12,3.0,North,5.8,-,N/A,,Light Freezing Drizzle,350,2013-01-16 02:55:00
9:55 PM,30.2,30.2,100,30.10,3.0,NNW,8.1,-,N/A,,Light Freezing Drizzle,330,2013-01-16 03:55:00
10:55 PM,30.2,30.2,100,30.11,3.0,NNW,5.8,-,N/A,,Light Freezing Drizzle,330,2013-01-16 04:55:00
11:55 PM,30.2,30.2,100,30.10,2.0,NNW,5.8,-,N/A,,Light Freezing Drizzle,340,2013-01-16 05:55:00